Regional Weather Roundup
Issued by NWS

Home | Current Version | Previous Version | Graphics & Text | Print | Product List | Glossary On
Versions: 1 2 3 4 5 6 7 8 9 10 11 12 13 14 15 16 17 18 19 20 21 22 23 24 25 26 27 28 29 30 31 32 33 34 35 36 37 38 39 40 41 42 43 44 45 46 47 48 49 50
000
ASUS43 KMPX 100001
RWRMN
WEATHER ROUNDUP FOR MINNESOTA
NATIONAL WEATHER SERVICE TWIN CITIES/CHANHASSEN MN
600 PM CST FRI DEC 09 2016


NOTE: "FAIR" INDICATES FEW OR NO CLOUDS BELOW 12,000 FEET WITH NO
SIGNIFICANT WEATHER AND/OR OBSTRUCTIONS TO VISIBILITY. N/A MEANS
CURRENT SKY AND/OR WEATHER CONDITIONS ARE NOT AVAILABLE.

MNZ060>063-068>070-100100-
   Twin Cities Metro

CITY           SKY/WX    TMP DP  RH WIND       PRES   REMARKS
TWIN CITIES    MOCLDY    14   6  70 W9        30.50S WCI   2
6HR MIN TEMP:  14; 6HR MAX TEMP:  20;

ST PAUL        CLOUDY    16   8  71 W7        30.51S WCI   6
CRYSTAL        MOCLDY    13   3  64 W8        30.49S WCI   2
BLAINE         MOCLDY    16   7  67 W7        30.48F WCI   6
LAKEVILLE      CLEAR     10   7  85 W6        30.49S WCI   1
EDEN PRAIRIE   MOCLDY    14   5  67 W8        30.49S WCI   3
6HR MIN TEMP:  12; 6HR MAX TEMP:  19;

SOUTH ST PAUL  PTCLDY    16   8  70 W8        30.50S WCI   5
LAKE ELMO      CLOUDY    18  10  73 W8        30.49S WCI   7
$$
MNZ001>005-007-008-013>017-022>024-027-028-100100-
   Northwest Minnesota

CITY           SKY/WX    TMP DP  RH WIND       PRES   REMARKS
BEMIDJI        CLOUDY     4  -2  75 W12       30.44F WCI -12
HALLOCK        PTCLDY    -4  -9  77 NW6       30.55S WCI -16
ROSEAU         CLOUDY     1  -6  71 W6        30.50S WCI -10
WARROAD        CLOUDY     1  -6  71 W6        30.48F WCI -10
THIEF RVR FALL CLOUDY    -2  -7  79 W9        30.52S WCI -18
CROOKSTON      CLEAR     -4  -9  77 NW3       30.56F
FOSSTON        CLOUDY     0  -6  78 W8        30.49S WCI -15
DETROIT LAKES  PTCLDY     0  -4  85 CALM      30.49F
MOORHEAD       PTCLDY     0  -6  78 NW3       30.56S
PARK RAPIDS    CLOUDY     4  -5  66 NW8       30.45S WCI  -9
$$
MNZ006-009>011-018-025>026-100100-
   North Central Minnesota

CITY           SKY/WX    TMP DP  RH WIND       PRES   REMARKS
BAUDETTE       CLEAR     -3 -10  72 W7        30.45F WCI -16
FLAG ISLAND    CLOUDY     3  -2  78 W14       30.46S WCI -15
INTL FALLS     CLEAR      1  -5  75 W8        30.44S WCI -13
6HR MIN TEMP:   1; 6HR MAX TEMP:   6; 6HR PCP: TRACE;

WASKISH        CLOUDY     3  -2  78 W9        30.46S WCI -11
BIG FORK       PTCLDY     3   0  85 CALM      30.43S
LONGVILLE      CLOUDY     7  -2  66 W6        30.44S WCI  -3
GRAND RAPIDS   FLURRIES   7  -1  70 NW7       30.45S WCI  -5
CRANE LAKE     CLOUDY     3  -4  72 W5        30.45F WCI  -6
ORR            CLOUDY     3  -4  72 CALM      30.39F
COOK           CLOUDY     3  -2  78 CALM      30.42S
$$
MNZ012-019>021-037-100100-
   Northeast Minnesota

CITY           SKY/WX    TMP DP  RH WIND       PRES   REMARKS
DULUTH         FLURRIES   8   2  76 NW6       30.41S WCI  -2
6HR MIN TEMP:   8; 6HR MAX TEMP:  10; 6HR PCP: TRACE;

ELY            CLOUDY     3  -2  78 W9        30.40S WCI -11
HIBBING        CLOUDY     4  -1  80 CALM      30.42S
EVELETH        CLOUDY     6  -3  67 W3        30.42S
DULUTH HARBOR  CLOUDY    12   1  62 NW12      30.49S WCI  -2
TWO HARBORS    CLEAR      5   0  78 CALM      30.42S
SILVER BAY     MOCLDY     7  -2  66 NW5       30.41S WCI  -2
GRAND MARAIS     N/A     13   4  67 VRB3      30.42F
G MARAIS ARPRT CLOUDY     7   0  72 W5        30.31S WCI  -2
$$
MNZ029>031-032-039>041-046>048-054>057-064-100100-
   West Central Minnesota

CITY           SKY/WX    TMP DP  RH WIND       PRES   REMARKS
FERGUS FALLS   CLEAR     -2  -6  84 NW6       30.58S WCI -14
WHEATON        CLEAR      3   0  85 NW3       30.57S
MORRIS         CLOUDY     7   1  78 NW12      30.52S WCI  -9
ALEXANDRIA     CLEAR      2  -3  80 W8        30.49R WCI -12
ELBOW LAKE     FAIR       0  -4  85 NW7       30.52S WCI -13
WADENA         FLURRIES   3  -2  78 NW8       30.47S WCI -10
GLENWOOD       CLEAR      1  -4  78 W7        30.50R WCI -11
APPLETON       CLOUDY     9   0  66 NW6       30.55R WCI  -1
BENSON         CLOUDY     5   0  78 N6        30.53S WCI  -6
ORTONVILLE     CLOUDY     7   0  72 N7        30.54S WCI  -5
MADISON        CLOUDY    10   3  72 N7        30.55R WCI   0
WILLMAR        MOCLDY     9   3  78 NW5       30.53R WCI   0
$$
MNZ033>034-036-042>043-049>051-058-059-100100-
   Central Minnesota

CITY           SKY/WX    TMP DP  RH WIND       PRES   REMARKS
ST CLOUD       CLOUDY    10   2  69 W12       30.49S WCI  -5
6HR MIN TEMP:   9; 6HR MAX TEMP:  14; 6HR PCP: TRACE;

PAYNESVILLE    CLOUDY     6   1  76 NW9       30.51R WCI  -7
AITKIN         MIX PCPN  12   0  57 W3        30.44S
PINE RIVER     CLOUDY     7   0  72 W6        30.47S WCI  -3
BRAINERD       CLOUDY     9   0  67 NW8       30.46S WCI  -3
STAPLES        CLOUDY     5   0  78 W8        30.47S WCI  -8
LONG PRAIRIE   FAIR       3  -2  78 SW3       30.48S
LITTLE FALLS   CLOUDY    10   1  67 W9        30.48S WCI  -2
LITCHFIELD     CLOUDY    10   3  72 W7        30.51R WCI   0
BUFFALO        PTCLDY    11   4  73 W7        30.51S WCI   1
MAPLE LAKE     PTCLDY    11   6  78 W7        30.51R WCI   1
HUTCHINSON     MOCLDY    10   6  81 W12       30.51S WCI  -4
$$
MNZ037-044-045-052-053-100100-
   East Central Minnesota

CITY           SKY/WX    TMP DP  RH WIND       PRES   REMARKS
PRINCETON      CLOUDY    14   7  73 W6        30.48S WCI   5
MORA           CLOUDY    12   3  67 NW7       30.49S WCI   2
CAMBRIDGE      CLOUDY    16   5  62 NW5       30.46S WCI   9
RUSH CITY      CLOUDY    14   5  67 NW6       30.48S WCI   5
MOOSE LAKE     CLOUDY    12   3  67 NW6       30.44S WCI   3
HINCKLEY       CLOUDY    14   5  67 W6        30.46S WCI   5
CLOQUET        CLOUDY     9   0  66 NW5       30.42S WCI   0
MCGREGOR       CLOUDY    10   3  72 NW6       30.45S WCI   1
$$
MNZ071>073-080-081-089-090-097-098-100100-
   Southwest Minnesota

CITY           SKY/WX    TMP DP  RH WIND       PRES   REMARKS
MONTEVIDEO     CLOUDY     7   1  78 N10       30.55S WCI  -8
GRANITE FALLS  CLOUDY    11   4  76 NW9       30.55S WCI  -2
CANBY          CLOUDY     9   3  78 CALM      30.54S
MARSHALL       FLURRIES   9   2  73 NW10      30.53S WCI  -5
REDWOOD FALLS  CLOUDY    11   1  64 NW9       30.53S WCI  -2
OLIVIA         CLEAR     10   3  72 NW9       30.52R WCI  -2
PIPESTONE      LGT SNOW  12   7  79 N3        30.46S
WINDOM         CLOUDY    12   9  85 CALM      30.49R
WORTHINGTON    FLURRIES  13   8  81 W6        30.48S WCI   4
JACKSON        CLOUDY    14  10  85 W3        30.48S
TRACY          FLURRIES  12   7  79 N7        30.50S WCI   1
SLAYTON        FLURRIES  12   8  83 W6        30.48R WCI   3
$$
MNZ065>067-074>077-082>085-091>093-100100-
   South Central Minnesota

CITY           SKY/WX    TMP DP  RH WIND       PRES   REMARKS
MANKATO        LGT SNOW  12   8  84 NW8       30.52R FOG     WCI   0
NEW ULM        CLOUDY    10   7  85 NW6       30.52S WCI   1
ST JAMES       FLURRIES  12   9  85 NW7       30.53R WCI   2
FAIRMONT       FLURRIES  16  10  77 NW8       30.51R WCI   5
GLENCOE        CLOUDY    12   8  83 W7        30.51S WCI   1
FARIBAULT      CLOUDY    12   9  85 W7        30.50S WCI   2
OWATONNA       FLURRIES  16  10  79 W6        30.48F WCI   7
WASECA         LGT SNOW  14  10  85 W8        30.51R WCI   3
ALBERT LEA     CLOUDY    19  14  79 W6        30.48S HAZE    WCI  11
$$
MNZ078>079-086>088-094>096-100100-
   Southeast Minnesota

CITY           SKY/WX    TMP DP  RH WIND       PRES   REMARKS
ROCHESTER      CLOUDY    13   9  84 W8        30.47S WCI   2
6HR MIN TEMP:  12; 6HR MAX TEMP:  16; 6HR PCP: TRACE;

RED WING       FLURRIES  18   9  68 W8        30.48F WCI   7
STANTON        MOCLDY    15   8  76 W7        30.49S WCI   5
DODGE CENTER   FLURRIES  14  10  85 W5        30.47S WCI   6
WINONA         CLEAR     19  12  73 CALM      30.51S
AUSTIN         CLEAR     16  10  79 W6        30.48S WCI   7
PRESTON        PTCLDY    11   7  84 W6        30.48S WCI   2
$$
ABBREVIATIONS USED IN REMARKS
   TC - TEMPERATURES IN CELSIUS
  WCI - WIND CHILL INDEX
   HX - HEAT INDEX
  VSB - VISIBILITY
$$



USA.gov is the U.S. government's official web portal to all federal, state and local government web resources and services.